Weather History for Montevideo, MN

Change the Weather History Date:

Monday, May 12, 2014

  Actual Average Record
Temperature  
Mean Temperature 48 °F -  
Max Temperature 53 °F 69 °F 90 °F (1988)
Min Temperature 44 °F 45 °F 26 °F (1971)
Degree Days  
Heating Degree Days 16    
Moisture  
Dew Point 47 °F    
Average Humidity 100    
Maximum Humidity 100    
Minimum Humidity 100    
Precipitation  
Precipitation 0.39 in - - ()
Sea Level Pressure  
Sea Level Pressure 29.83 in    
Wind  
Wind Speed 17 mph (North)    
Max Wind Speed 24 mph    
Max Gust Speed 34 mph    
Visibility 8 miles    
Events Rain    
Averages and records for this station are not official NWS values.
T = Trace of Precipitation, MM = Missing Value Source: NWS Daily Summary

Daily Weather History Graph

Daily Weather History Graph

Search for Another Location

Airport:

Trip Planner

Search our weather history database for the weather conditions in past years. The results will help you decide how hot, cold, wet, or windy it might be!

Date:

Astronomy

May. 12, 2014 Rise Set
Actual Time 5:57 AM CDT 8:41 PM CDT
Civil Twilight 5:23 AM CDT 9:15 PM CDT
Nautical Twilight 4:40 AM CDT 9:58 PM CDT
Astronomical Twilight 3:51 AM CDT 10:48 PM CDT
Moon 6:35 PM CDT (5/12) 4:44 AM CDT (5/12)
Length of Visible Light 15h 52m
Length of Day
14h 44m
Waxing Gibbous, 95% of the Moon is Illuminated
May 12
Waxing Gibbous
May 14
Full
May 21
Last Quarter
May 28
New
Jun 5
First Quarter

Hourly Weather History & Observations

Time (CDT) Temp. Windchill Dew Point Humidity Pressure Visibility Wind Dir Wind Speed Gust Speed Precip Events Conditions
12:14 AM 53.6 °F - 53.6 °F 100% 29.82 in 7.0 mi North 16.1 mph 26.5 mph N/A   Drizzle
12:34 AM 53.6 °F - 53.6 °F 100% 29.80 in 10.0 mi NE 19.6 mph 27.6 mph 0.06 in Rain Rain
12:54 AM 53.6 °F - 53.6 °F 100% 29.78 in 7.0 mi ENE 16.1 mph 24.2 mph 0.19 in Rain Rain
1:14 AM 53.6 °F - 53.6 °F 100% 29.76 in 10.0 mi ENE 18.4 mph 23.0 mph 0.08 in Rain Light Rain
1:34 AM 53.6 °F - 53.6 °F 100% 29.75 in 10.0 mi ENE 15.0 mph 21.9 mph 0.10 in Rain Light Rain
1:54 AM 53.6 °F - 53.6 °F 100% 29.77 in 10.0 mi NNE 11.5 mph 19.6 mph 0.10 in Rain Light Rain
2:14 AM - - - N/A% 29.78 in 10.0 mi Calm Calm - N/A   Overcast
2:34 AM 53.6 °F - 53.6 °F 100% 29.78 in 10.0 mi North 10.4 mph - N/A   Overcast
2:54 AM 53.6 °F - 53.6 °F 100% 29.78 in 10.0 mi North - - N/A   Overcast
3:14 AM 53.6 °F - 53.6 °F 100% 29.77 in 10.0 mi Calm Calm - N/A   Overcast
3:34 AM 53.6 °F - 53.6 °F 100% 29.78 in 10.0 mi North 13.8 mph - N/A Rain Light Rain
3:54 AM 53.6 °F - 53.6 °F 100% 29.77 in 5.0 mi North 13.8 mph 19.6 mph N/A   Drizzle
4:14 AM 51.8 °F - 51.8 °F 100% 29.78 in 4.0 mi North 17.3 mph 23.0 mph N/A   Drizzle
4:34 AM 48.2 °F - 48.2 °F 100% 29.78 in 7.0 mi North 24.2 mph - N/A   Overcast
4:54 AM 48.2 °F - 48.2 °F 100% 29.77 in 10.0 mi North 21.9 mph 27.6 mph N/A   Overcast
5:14 AM 46.4 °F 39.0 °F 46.4 °F 100% 29.77 in 10.0 mi NNE 19.6 mph 27.6 mph N/A   Overcast
5:33 AM 46.4 °F 39.0 °F 46.4 °F 100% 29.76 in 10.0 mi North 19.6 mph 25.3 mph N/A   Overcast
5:54 AM 46.4 °F 39.8 °F 46.4 °F 100% 29.77 in 10.0 mi North 16.1 mph - N/A   Overcast
6:14 AM 46.4 °F 39.5 °F 46.4 °F 100% 29.77 in 10.0 mi North 17.3 mph 26.5 mph N/A   Overcast
6:33 AM 46.4 °F 39.0 °F 46.4 °F 100% 29.78 in 10.0 mi North 19.6 mph 25.3 mph N/A   Overcast
6:54 AM 46.4 °F 38.5 °F 46.4 °F 100% 29.75 in 10.0 mi North 21.9 mph 27.6 mph N/A   Overcast
7:14 AM 46.4 °F 40.1 °F 46.4 °F 100% 29.77 in 7.0 mi North 15.0 mph 25.3 mph N/A   Overcast
7:34 AM 44.6 °F 37.8 °F 44.6 °F 100% 29.79 in 7.0 mi North 15.0 mph - N/A   Overcast
7:54 AM 44.6 °F 37.2 °F 44.6 °F 100% 29.81 in 7.0 mi North 17.3 mph 21.9 mph N/A   Overcast
8:14 AM 44.6 °F 37.2 °F 44.6 °F 100% 29.80 in 7.0 mi North 17.3 mph - N/A   Overcast
8:34 AM 44.6 °F 36.6 °F 44.6 °F 100% 29.80 in 3.0 mi North 19.6 mph 27.6 mph N/A   Overcast
9:14 AM 44.6 °F 37.2 °F 44.6 °F 100% 29.82 in 7.0 mi North 17.3 mph 24.2 mph N/A   Overcast
9:34 AM 44.6 °F 37.4 °F 44.6 °F 100% 29.83 in 10.0 mi North 16.1 mph 23.0 mph N/A   Overcast
9:54 AM 44.6 °F 37.8 °F 44.6 °F 100% 29.82 in 10.0 mi North 15.0 mph 25.3 mph N/A   Overcast
10:14 AM 44.6 °F 36.9 °F 44.6 °F 100% 29.82 in 10.0 mi North 18.4 mph 27.6 mph N/A   Overcast
10:34 AM 44.6 °F 36.4 °F 44.6 °F 100% 29.82 in 10.0 mi North 20.7 mph - N/A   Overcast
10:54 AM 44.6 °F 37.4 °F 44.6 °F 100% 29.83 in 7.0 mi North 16.1 mph 23.0 mph N/A Rain Light Rain
11:14 AM 44.6 °F 36.9 °F 44.6 °F 100% 29.84 in 5.0 mi North 18.4 mph 24.2 mph N/A   Overcast
11:34 AM 44.6 °F 37.2 °F 44.6 °F 100% 29.83 in 4.0 mi North 17.3 mph 24.2 mph N/A   Overcast
11:54 AM 44.6 °F 37.2 °F 44.6 °F 100% 29.82 in 3.0 mi North 17.3 mph 26.5 mph N/A   Overcast
12:13 PM 44.6 °F 37.8 °F 44.6 °F 100% 29.82 in 3.0 mi North 15.0 mph 24.2 mph N/A   Overcast
12:34 PM 44.6 °F 36.6 °F 44.6 °F 100% 29.82 in 4.0 mi North 19.6 mph 27.6 mph N/A   Overcast
12:54 PM 44.6 °F 36.1 °F 44.6 °F 100% 29.81 in 7.0 mi North 21.9 mph 26.5 mph N/A   Overcast
1:13 PM 44.6 °F 38.4 °F 44.6 °F 100% 29.85 in 10.0 mi NNW 12.7 mph - N/A   Overcast
1:34 PM 44.6 °F 37.4 °F 44.6 °F 100% 29.84 in 10.0 mi North 16.1 mph 21.9 mph 0.02 in Rain Light Rain
1:54 PM 44.6 °F 36.9 °F 44.6 °F 100% 29.82 in 5.0 mi North 18.4 mph 24.2 mph 0.03 in   Drizzle
2:34 PM 44.6 °F 37.2 °F 44.6 °F 100% 29.84 in 5.0 mi North 17.3 mph 25.3 mph N/A   Light Drizzle
2:54 PM 44.6 °F 37.4 °F 44.6 °F 100% 29.84 in 5.0 mi North 16.1 mph 23.0 mph N/A   Overcast
3:13 PM 44.6 °F 38.1 °F 44.6 °F 100% 29.85 in 5.0 mi North 13.8 mph 19.6 mph 0.03 in Rain Rain
3:34 PM 44.6 °F 38.4 °F 44.6 °F 100% 29.85 in 7.0 mi North 12.7 mph - 0.05 in Rain Light Rain
3:54 PM 44.6 °F 37.4 °F 44.6 °F 100% 29.84 in 5.0 mi North 16.1 mph 21.9 mph 0.06 in   Drizzle
4:13 PM 44.6 °F 36.9 °F 44.6 °F 100% 29.85 in 7.0 mi North 18.4 mph 24.2 mph N/A   Light Drizzle
4:34 PM 44.6 °F 37.2 °F 44.6 °F 100% 29.86 in 5.0 mi North 17.3 mph 24.2 mph N/A   Light Drizzle
4:54 PM 44.6 °F 36.4 °F 44.6 °F 100% 29.85 in 2.0 mi North 20.7 mph 26.5 mph N/A   Drizzle
5:13 PM 44.6 °F 37.4 °F 44.6 °F 100% 29.86 in 3.0 mi North 16.1 mph - 0.01 in   Light Drizzle
5:34 PM 44.6 °F 36.4 °F 44.6 °F 100% 29.85 in 3.0 mi North 20.7 mph 25.3 mph 0.01 in   Light Drizzle
5:54 PM 44.6 °F 37.4 °F 44.6 °F 100% 29.86 in 5.0 mi North 16.1 mph 25.3 mph 0.01 in   Light Drizzle
6:13 PM 44.6 °F 36.6 °F 44.6 °F 100% 29.88 in 10.0 mi North 19.6 mph 27.6 mph N/A   Overcast
6:34 PM 44.6 °F 36.4 °F 44.6 °F 100% 29.87 in 10.0 mi North 20.7 mph 27.6 mph N/A   Overcast
6:54 PM 44.6 °F 36.1 °F 44.6 °F 100% 29.86 in 10.0 mi North 21.9 mph 29.9 mph N/A   Overcast
7:13 PM 46.4 °F 38.7 °F 46.4 °F 100% 29.86 in 10.0 mi North 20.7 mph 29.9 mph N/A   Overcast
7:34 PM 44.6 °F 35.9 °F 44.6 °F 100% 29.87 in 10.0 mi North 23.0 mph 31.1 mph N/A   Overcast
7:54 PM 44.6 °F 37.2 °F 44.6 °F 100% 29.88 in 10.0 mi North 17.3 mph 29.9 mph N/A   Overcast
8:13 PM 44.6 °F 35.9 °F 44.6 °F 100% 29.89 in 10.0 mi North 23.0 mph 32.2 mph N/A   Overcast
8:54 PM 44.6 °F 36.9 °F 44.6 °F 100% 29.91 in 10.0 mi North 18.4 mph 26.5 mph N/A   Overcast
9:13 PM 44.6 °F 35.7 °F 44.6 °F 100% 29.90 in 10.0 mi North 24.2 mph 34.5 mph N/A   Overcast
9:34 PM 44.6 °F 35.9 °F 44.6 °F 100% 29.90 in 10.0 mi North 23.0 mph 34.5 mph N/A   Overcast
10:14 PM 44.6 °F 36.6 °F 44.6 °F 100% 29.91 in 10.0 mi North 19.6 mph 29.9 mph N/A   Overcast
10:34 PM 44.6 °F 36.1 °F 44.6 °F 100% 29.93 in 10.0 mi North 21.9 mph 34.5 mph N/A   Overcast
10:54 PM 44.6 °F 35.7 °F 44.6 °F 100% 29.93 in 10.0 mi North 24.2 mph 29.9 mph N/A   Overcast
11:14 PM 44.6 °F 36.1 °F 44.6 °F 100% 29.93 in 10.0 mi North 21.9 mph 27.6 mph N/A   Overcast
11:33 PM 44.6 °F 36.4 °F 44.6 °F 100% 29.94 in 10.0 mi North 20.7 mph 29.9 mph N/A   Overcast
11:54 PM 44.6 °F 35.9 °F 44.6 °F 100% 29.94 in 10.0 mi North 23.0 mph 28.8 mph N/A   Overcast